Weather observations for the past three days for
La Crosse - La Crosse Regional Airport
Imperial (Metric)
Date Time (cdt) Wind (mph) Vis. (mi.) Weather Sky Cond. Temperature (ºF) Relative Humidity Wind Chill (°F) Heat Index (°F) Pressure Precipitation (in)
Air Dwpt 6 hour altimeter (in) sea level (mb) 1 hr 3 hr 6 hr
Max. Min.
18 08:53 Calm 10.00 Fair CLR 66 57 73% 30.24 1023.5
18 07:53 Calm 10.00 Fair CLR 63 57 81% 30.24 1023.3
18 06:53 Calm 10.00 Fair CLR 59 55 61 55 87% 30.23 1023.2
18 05:53 Calm 10.00 Fair CLR 57 53.1 87% 30.23 1023.0
18 04:53 Calm 10.00 Fair CLR 57 53.1 87% 30.22 1022.6
18 03:53 Calm 10.00 Fair CLR 59 54 83% 30.2 1022.1
18 02:53 Calm 10.00 Fair CLR 57.9 53.1 84% 30.2 1021.9
18 01:53 Calm 10.00 Fair CLR 59 54 83% 30.19 1021.8
17 23:53 Calm 10.00 Fair CLR 61 53.1 75% 30.18 1021.4
17 22:53 Calm 10.00 Fair CLR 61 53.1 75% 30.16 1020.6
17 20:53 NE 3 10.00 Fair CLR 66.9 51.1 57% 30.13 1019.7
17 19:53 N 10 10.00 Fair CLR 71.1 51.1 49% 30.13 1019.5
17 18:53 N 10 10.00 Fair CLR 73.9 52 78.1 72 46% 30.12 1019.2
17 17:53 N 10 10.00 Partly Cloudy SCT065 75 52 45% 78 30.11 1019.0
17 16:53 N 13 10.00 A Few Clouds FEW060 75 50 42% 78 30.1 1018.6
17 15:53 N 12 10.00 Mostly Cloudy BKN060 73 51.1 46% 30.1 1018.6
17 14:53 N 13 10.00 Mostly Cloudy BKN060 77 52 42% 78 30.09 1018.3
17 13:53 N 13 10.00 Mostly Cloudy BKN050 BKN060 73.9 51.1 45% 30.08 1017.9
17 12:53 N 16 G 23 10.00 A Few Clouds FEW050 75 51.1 75.9 64 43% 78 30.07 1017.7
17 11:53 N 13 G 24 10.00 A Few Clouds FEW045 73.9 51.1 45% 30.07 1017.5
17 10:53 N 15 10.00 Partly Cloudy SCT044 73.4 51.8 47% 30.06 0.0
17 09:53 N 13 10.00 Fair CLR 71.1 53.1 53% 30.06 1017.3
17 08:53 NW 10 10.00 Fair CLR 69.1 55.9 63% 30.06 1017.2
17 06:53 N 3 10.00 Fair CLR 64 57.9 66 61 81% 30.03 1016.2
17 05:53 N 5 10.00 A Few Clouds FEW060 61 55.9 84% 30.01 1015.3
17 04:53 N 5 10.00 Fair CLR 62.1 55.9 80% 29.98 1014.2
17 03:53 N 5 10.00 Fair CLR 63 57 81% 29.95 1013.4
17 02:53 NW 6 10.00 Fair CLR 63 57 81% 29.94 1013.0
17 01:53 NW 8 10.00 Fair CLR 66 61 84% 29.94 1012.9
17 00:53 Calm 10.00 Fair CLR 63 60.1 78.1 63 90% 29.93 1012.6
16 23:53 Calm 10.00 Fair CLR 68 63 84% 29.92 1012.3
16 22:53 Calm 10.00 Fair CLR 68 62.1 81% 29.92 1012.2
16 21:53 W 5 10.00 Fair CLR 70 61 73% 29.9 1011.7
16 20:53 NW 5 10.00 Fair CLR 72 60.1 66% 29.9 1011.5
16 19:53 NW 8 10.00 Fair CLR 75.9 60.1 58% 78 29.88 1010.8
16 18:53 N 12 10.00 A Few Clouds FEW050 78.1 60.1 84.9 78.1 54% 79 29.88 1010.8
16 17:53 NW 12 10.00 Fair CLR 79 57 47% 80 29.87 1010.5
16 16:53 NW 10 10.00 Fair CLR 81 57.9 45% 81 29.87 1010.6
16 15:53 NW 8 10.00 Mostly Cloudy BKN090 BKN100 80.1 57.9 47% 81 29.88 1010.9
16 14:53 W 10 10.00 A Few Clouds FEW050 FEW065 84.2 57.2 40% 83 29.87 0.0
16 13:53 NW 12 10.00 Partly Cloudy SCT049 SCT065 81 60.1 49% 82 29.84 1009.5
16 12:53 NW 10 10.00 Mostly Cloudy SCT042 BKN055 79 61 82 70 54% 80 29.85 1009.8
16 11:53 W 7 10.00 A Few Clouds FEW042 80.1 62.1 54% 81 29.85 1009.8
16 10:53 N 7 10.00 Fair CLR 79 62.1 56% 80 29.84 1009.4
16 09:53 N 5 10.00 Fair CLR 75.9 62.1 62% 78 29.84 1009.3
16 08:53 N 7 10.00 Fair CLR 75 63 66% 77 29.84 1009.3
16 07:53 N 10 10.00 Fair CLR 73 64.9 76% 29.82 1008.6
16 05:53 N 9 10.00 Partly Cloudy SCT060 70 64.9 84% 29.78 1007.3
16 04:53 NW 6 10.00 Fair CLR 70 66 87% 29.76 1006.5
16 03:53 NW 8 10.00 Partly Cloudy SCT065 72 68 87% 29.74 1006.0
16 02:53 NW 7 10.00 A Few Clouds FEW070 73.9 69.1 85% 29.73 1005.6
16 01:53 N 5 9.00 Fair CLR 73 70 90% 29.73 1005.5
16 00:53 NW 6 10.00 Fair CLR 73.9 71.1 82 73.9 91% 29.73 1005.7
15 22:53 N 3 10.00 Mostly Cloudy SCT025 BKN029 77 73.9 90% 78 29.7 1004.9
15 21:53 Calm 10.00 Mostly Cloudy BKN041 BKN055 79 73.9 85% 83 29.68 1003.8
15 20:53 Calm 10.00 Mostly Cloudy BKN048 78.1 73.9 87% 81 29.68 1003.9
15 19:53 Calm 10.00 Fair CLR 82 73.9 77% 88 29.65 1003.0
15 18:53 Calm 10.00 Fair CLR 80.1 73.9 84.9 80.1 82% 85 29.65 1002.8
15 17:53 SE 3 10.00 Fair CLR 82 73 74% 87 29.67 1003.7
15 16:53 S 5 10.00 Fair CLR 84 70 63% 88 29.71 1004.8
15 15:53 W 3 10.00 Partly Cloudy SCT110 84 69.1 61% 88 29.74 1005.9
15 14:53 SW 8 10.00 A Few Clouds FEW120 82.9 69.1 63% 87 29.74 1005.7
15 13:53 S 13 10.00 Fair CLR 82.9 66 57% 85 29.74 1006.1
15 12:53 S 14 10.00 Fair CLR 82 68 82.9 73 63% 85 29.76 1006.7 0.01
15 11:53 SE 6 10.00 Fair CLR 77 70 79% 79 29.78 1007.4
15 10:53 N 7 10.00 Mostly Cloudy SCT006 BKN110 75.2 71.6 89% 75 29.88 0.0
15 09:53 NW 6 8.00 Light Rain SCT005 BKN110 75 72 90% 74 29.91 1011.7
Date Time (cdt) Wind (mph) Vis. (mi.) Weather Sky Cond. Air Dwpt Max. Min. Relative Humidity Wind Chill (°F) Heat Index (°F) altimeter (in) sea level (mb) 1 hr 3 hr 6 hr
6 hour
Temperature (ºF) Pressure Precipitation (in)